VLG7YA LEJR-LEBL

Flight info

Callsign VLG7YA
Flight time 1h 21m
Altitude 32000
Route PEPAS M445 BEGOX N860 VLC M985 SOPET N608 MATEX
Aircraft A320/M-SDE3FGHIRWY/LB1

Departure

Time 2026-05-05 10:58
Airport Jerez Airport (LEJR)

Arrival

Time 2026-05-05 12:19
Airport Josep Tarradellas Barcelona-El Prat Airport (LEBL)
Time Latitude Longitude Altitude Speed Heading
2026-05-05 10:40 36.74929 -6.06331 92 ft 0 kts 294°
2026-05-05 10:50 36.74928 -6.06327 92 ft 3 kts 294°
2026-05-05 10:50 36.74917 -6.06296 93 ft 4 kts 292°
2026-05-05 10:50 36.74910 -6.06265 92 ft 4 kts 267°
2026-05-05 10:50 36.74917 -6.06235 92 ft 4 kts 218°
2026-05-05 10:51 36.74928 -6.06227 92 ft 1 kts 200°
2026-05-05 10:51 36.74929 -6.06227 91 ft 0 kts 200°
2026-05-05 10:53 36.74924 -6.06229 93 ft 5 kts 200°
2026-05-05 10:53 36.74801 -6.06264 91 ft 18 kts 169°
2026-05-05 10:54 36.74772 -6.06205 93 ft 6 kts 111°
2026-05-05 10:54 36.74759 -6.06161 92 ft 6 kts 110°
2026-05-05 10:54 36.74673 -6.06125 93 ft 18 kts 201°
2026-05-05 10:54 36.74559 -6.06183 92 ft 17 kts 202°
2026-05-05 10:55 36.74451 -6.06237 90 ft 17 kts 201°
2026-05-05 10:55 36.74332 -6.06296 88 ft 20 kts 202°
2026-05-05 10:55 36.74204 -6.06361 89 ft 20 kts 201°
2026-05-05 10:55 36.74071 -6.06422 86 ft 21 kts 200°
2026-05-05 10:56 36.73918 -6.06493 86 ft 25 kts 201°
2026-05-05 10:56 36.73745 -6.06582 71 ft 29 kts 202°
2026-05-05 10:56 36.73567 -6.06630 65 ft 19 kts 141°
2026-05-05 10:56 36.73521 -6.06481 74 ft 13 kts 72°
2026-05-05 10:57 36.73538 -6.06466 68 ft 0 kts 20°
2026-05-05 10:57 36.73651 -6.06410 71 ft 52 kts 22°
2026-05-05 10:57 36.74208 -6.06143 89 ft 116 kts 21°
2026-05-05 10:57 36.75094 -6.05732 370 ft 141 kts 20°
2026-05-05 10:58 36.75987 -6.05269 1054 ft 138 kts 19°
2026-05-05 10:58 36.76877 -6.04823 1741 ft 139 kts 19°
2026-05-05 10:58 36.77796 -6.04386 2252 ft 149 kts 17°
2026-05-05 10:58 36.78838 -6.03905 2618 ft 170 kts 17°
2026-05-05 10:59 36.80031 -6.03352 3025 ft 195 kts 18°
2026-05-05 10:59 36.81369 -6.02719 3397 ft 216 kts 21°
2026-05-05 10:59 36.82594 -6.01495 3765 ft 246 kts 59°
2026-05-05 10:59 36.83006 -5.99343 4316 ft 269 kts 95°
2026-05-05 11:00 36.82381 -5.97112 5179 ft 277 kts 116°
2026-05-05 11:00 36.81659 -5.94865 6013 ft 283 kts 99°
2026-05-05 11:00 36.81652 -5.92418 6834 ft 285 kts 82°
2026-05-05 11:00 36.81795 -5.89926 7630 ft 291 kts 88°
2026-05-05 11:01 36.81803 -5.87387 8452 ft 296 kts 90°
2026-05-05 11:01 36.81761 -5.84830 9244 ft 301 kts 90°
2026-05-05 11:01 36.81713 -5.82193 10035 ft 307 kts 90°
2026-05-05 11:01 36.81677 -5.79467 10487 ft 325 kts 90°
2026-05-05 11:02 36.81660 -5.76539 10726 ft 349 kts 90°
2026-05-05 11:02 36.81659 -5.73436 11148 ft 364 kts 89°
2026-05-05 11:02 36.81669 -5.70243 11779 ft 372 kts 89°
2026-05-05 11:02 36.81686 -5.66989 12436 ft 377 kts 89°
2026-05-05 11:03 36.81703 -5.63691 13100 ft 383 kts 90°
2026-05-05 11:03 36.81715 -5.60348 13753 ft 388 kts 90°
2026-05-05 11:03 36.81724 -5.56956 14346 ft 393 kts 90°
2026-05-05 11:03 36.81732 -5.53523 14954 ft 397 kts 90°
2026-05-05 11:04 36.81739 -5.50061 15540 ft 401 kts 90°
2026-05-05 11:04 36.81745 -5.46559 16136 ft 406 kts 90°
2026-05-05 11:04 36.81748 -5.43023 16712 ft 409 kts 90°
2026-05-05 11:04 36.81749 -5.39453 17297 ft 413 kts 90°
2026-05-05 11:05 36.81750 -5.35850 17883 ft 417 kts 90°
2026-05-05 11:05 36.81753 -5.32223 18426 ft 421 kts 90°
2026-05-05 11:05 36.81756 -5.28551 18908 ft 425 kts 90°
2026-05-05 11:05 36.81758 -5.24893 19375 ft 429 kts 90°
2026-05-05 11:06 36.81759 -5.21111 19856 ft 432 kts 91°
2026-05-05 11:06 36.81758 -5.17385 20303 ft 437 kts 91°
2026-05-05 11:06 36.81754 -5.13581 20778 ft 440 kts 91°
2026-05-05 11:06 36.81750 -5.09748 21233 ft 444 kts 91°
2026-05-05 11:07 36.81743 -5.05874 21675 ft 448 kts 91°
2026-05-05 11:07 36.81734 -5.01967 22144 ft 452 kts 91°
2026-05-05 11:07 36.81724 -4.98035 22591 ft 455 kts 91°
2026-05-05 11:07 36.81712 -4.94066 22994 ft 459 kts 91°
2026-05-05 11:08 36.81701 -4.90060 23392 ft 463 kts 91°
2026-05-05 11:08 36.81690 -4.86024 23781 ft 466 kts 91°
2026-05-05 11:08 36.81675 -4.81962 24143 ft 469 kts 91°
2026-05-05 11:08 36.81659 -4.77883 24488 ft 472 kts 91°
2026-05-05 11:09 36.81642 -4.73771 24837 ft 474 kts 91°
2026-05-05 11:09 36.81622 -4.69649 25189 ft 477 kts 91°
2026-05-05 11:09 36.81600 -4.65555 25521 ft 479 kts 91°
2026-05-05 11:09 36.81579 -4.61333 25887 ft 482 kts 91°
2026-05-05 11:10 36.81557 -4.57140 26243 ft 483 kts 91°
2026-05-05 11:10 36.81532 -4.52995 26570 ft 486 kts 92°
2026-05-05 11:10 36.81506 -4.48767 26894 ft 488 kts 92°
2026-05-05 11:10 36.81479 -4.44518 27226 ft 491 kts 91°
2026-05-05 11:11 36.81707 -4.40259 27560 ft 494 kts 82°
2026-05-05 11:11 36.82439 -4.36057 27878 ft 496 kts 72°
2026-05-05 11:11 36.83660 -4.32017 28163 ft 498 kts 64°
2026-05-05 11:11 36.85271 -4.28187 28458 ft 499 kts 59°
2026-05-05 11:12 36.86935 -4.24376 28763 ft 501 kts 59°
2026-05-05 11:12 36.88610 -4.20536 29050 ft 504 kts 59°
2026-05-05 11:12 36.90289 -4.16681 29330 ft 507 kts 59°
2026-05-05 11:12 36.91976 -4.12796 29613 ft 509 kts 59°
2026-05-05 11:13 36.93665 -4.08900 29883 ft 511 kts 59°
2026-05-05 11:13 36.95341 -4.05037 30147 ft 514 kts 59°
2026-05-05 11:13 36.97047 -4.01104 30388 ft 516 kts 60°
2026-05-05 11:13 36.98754 -3.97155 30669 ft 515 kts 60°
2026-05-05 11:14 37.00454 -3.93214 31024 ft 515 kts 60°
2026-05-05 11:14 37.02155 -3.89272 31343 ft 515 kts 60°
2026-05-05 11:14 37.03857 -3.85332 31681 ft 514 kts 60°
2026-05-05 11:14 37.05558 -3.81394 31954 ft 514 kts 60°
2026-05-05 11:15 37.07249 -3.77470 32017 ft 510 kts 60°
2026-05-05 11:15 37.10600 -3.69669 32066 ft 507 kts 60°
2026-05-05 11:16 37.13926 -3.61895 32050 ft 506 kts 60°
2026-05-05 11:16 37.17870 -3.54657 32058 ft 501 kts 44°
2026-05-05 11:17 37.22704 -3.48394 32045 ft 500 kts 42°
2026-05-05 11:17 37.27556 -3.42130 32026 ft 500 kts 42°
2026-05-05 11:18 37.32394 -3.35841 32009 ft 500 kts 42°
2026-05-05 11:18 37.37224 -3.29537 31997 ft 501 kts 42°
2026-05-05 11:19 37.42031 -3.23266 31991 ft 501 kts 42°
2026-05-05 11:19 37.46881 -3.16949 31992 ft 502 kts 42°
2026-05-05 11:20 37.51725 -3.10621 31987 ft 502 kts 42°
2026-05-05 11:20 37.56573 -3.04267 31987 ft 503 kts 42°
2026-05-05 11:21 37.61416 -2.97897 31986 ft 503 kts 42°
2026-05-05 11:21 37.66263 -2.91522 31990 ft 504 kts 42°
2026-05-05 11:22 37.71118 -2.85128 31994 ft 505 kts 42°
2026-05-05 11:22 37.75974 -2.78715 31993 ft 506 kts 43°
2026-05-05 11:23 37.80806 -2.72322 31998 ft 506 kts 42°
2026-05-05 11:23 37.85676 -2.65871 31992 ft 507 kts 42°
2026-05-05 11:24 37.90540 -2.59401 32000 ft 508 kts 43°
2026-05-05 11:24 37.95413 -2.52910 31985 ft 508 kts 43°
2026-05-05 11:25 38.00276 -2.46416 31987 ft 509 kts 43°
2026-05-05 11:25 38.05147 -2.39905 31988 ft 509 kts 43°
2026-05-05 11:26 38.10018 -2.33383 31985 ft 509 kts 43°
2026-05-05 11:26 38.14889 -2.26847 31984 ft 509 kts 43°
2026-05-05 11:27 38.19754 -2.20298 31987 ft 510 kts 43°
2026-05-05 11:27 38.23526 -2.14501 31984 ft 513 kts 49°
2026-05-05 11:28 38.27943 -2.07364 31982 ft 513 kts 49°
2026-05-05 11:28 38.32357 -2.00214 31979 ft 514 kts 49°
2026-05-05 11:29 38.36775 -1.93045 31975 ft 514 kts 49°
2026-05-05 11:29 38.41197 -1.85872 31976 ft 515 kts 49°
2026-05-05 11:30 38.45622 -1.78676 31972 ft 516 kts 49°
2026-05-05 11:30 38.50040 -1.71462 31978 ft 516 kts 50°
2026-05-05 11:31 38.54450 -1.64232 31975 ft 516 kts 50°
2026-05-05 11:31 38.58870 -1.57008 31983 ft 516 kts 50°
2026-05-05 11:32 38.63255 -1.49820 31987 ft 516 kts 50°
2026-05-05 11:32 38.67667 -1.42559 31987 ft 517 kts 50°
2026-05-05 11:33 38.72066 -1.35281 31985 ft 517 kts 50°
2026-05-05 11:33 38.76459 -1.28000 31980 ft 517 kts 50°
2026-05-05 11:34 38.80863 -1.20707 31976 ft 517 kts 50°
2026-05-05 11:34 38.85273 -1.13401 31973 ft 518 kts 50°
2026-05-05 11:35 38.89678 -1.06063 31968 ft 519 kts 50°
2026-05-05 11:35 38.94079 -0.98711 31964 ft 519 kts 50°
2026-05-05 11:36 38.98480 -0.91351 31957 ft 520 kts 50°
2026-05-05 11:36 39.02886 -0.83974 31947 ft 520 kts 50°
2026-05-05 11:37 39.07823 -0.77277 31932 ft 513 kts 34°
2026-05-05 11:37 39.13764 -0.72486 31927 ft 505 kts 22°
2026-05-05 11:38 39.19963 -0.68209 31924 ft 506 kts 22°
2026-05-05 11:38 39.26170 -0.63902 31914 ft 507 kts 22°
2026-05-05 11:39 39.32391 -0.59590 31910 ft 507 kts 22°
2026-05-05 11:39 39.38606 -0.55267 31907 ft 508 kts 22°
2026-05-05 11:40 39.44829 -0.50916 31906 ft 509 kts 23°
2026-05-05 11:40 39.50601 -0.45492 31901 ft 520 kts 41°
2026-05-05 11:41 39.55606 -0.38707 31899 ft 521 kts 44°
2026-05-05 11:41 39.60560 -0.31908 31894 ft 522 kts 44°
2026-05-05 11:42 39.65551 -0.25064 31897 ft 523 kts 44°
2026-05-05 11:42 39.70544 -0.18202 31907 ft 523 kts 44°
2026-05-05 11:43 39.75536 -0.11322 31917 ft 523 kts 44°
2026-05-05 11:43 39.80656 -0.04614 31916 ft 520 kts 36°
2026-05-05 11:44 39.86707 0.00329 31934 ft 509 kts 18°
2026-05-05 11:44 39.93334 0.03210 31939 ft 500 kts
2026-05-05 11:45 40.00039 0.05695 31937 ft 501 kts
2026-05-05 11:45 40.06756 0.08186 31937 ft 502 kts
2026-05-05 11:46 40.13436 0.10678 31940 ft 502 kts
2026-05-05 11:46 40.20162 0.13202 31940 ft 503 kts
2026-05-05 11:47 40.26892 0.15728 31946 ft 504 kts
2026-05-05 11:47 40.33637 0.18248 31956 ft 504 kts
2026-05-05 11:48 40.43729 0.22035 30618 ft 503 kts
2026-05-05 11:48 40.47085 0.23310 30040 ft 501 kts 10°
2026-05-05 11:48 40.50324 0.25053 29424 ft 507 kts 24°
2026-05-05 11:49 40.53234 0.27675 28926 ft 508 kts 38°
2026-05-05 11:49 40.55664 0.31034 28394 ft 506 kts 52°
2026-05-05 11:49 40.57478 0.34957 27996 ft 500 kts 67°
2026-05-05 11:49 40.58646 0.39237 27919 ft 496 kts 76°
2026-05-05 11:50 40.59654 0.43570 27540 ft 494 kts 76°
2026-05-05 11:50 40.60672 0.47873 26982 ft 490 kts 75°
2026-05-05 11:50 40.61688 0.52128 26466 ft 486 kts 75°
2026-05-05 11:50 40.62695 0.56353 25982 ft 481 kts 75°
2026-05-05 11:51 40.63689 0.60538 25488 ft 477 kts 75°
2026-05-05 11:51 40.64671 0.64691 24995 ft 472 kts 75°
2026-05-05 11:51 40.65636 0.68809 24514 ft 468 kts 75°
2026-05-05 11:51 40.66584 0.72889 24035 ft 464 kts 75°
2026-05-05 11:52 40.67521 0.76933 23565 ft 460 kts 75°
2026-05-05 11:52 40.68440 0.80900 23043 ft 456 kts 75°
2026-05-05 11:52 40.69363 0.84877 22528 ft 452 kts 75°
2026-05-05 11:52 40.70276 0.88822 22037 ft 448 kts 75°
2026-05-05 11:53 40.71181 0.92730 21560 ft 444 kts 75°
2026-05-05 11:53 40.72077 0.96601 21092 ft 440 kts 75°
2026-05-05 11:53 40.72961 1.00438 20645 ft 436 kts 75°
2026-05-05 11:53 40.73837 1.04246 20204 ft 432 kts 75°
2026-05-05 11:54 40.74707 1.08020 19773 ft 428 kts 75°
2026-05-05 11:54 40.75566 1.11763 19350 ft 425 kts 75°
2026-05-05 11:54 40.76415 1.15477 18942 ft 421 kts 75°
2026-05-05 11:54 40.77255 1.19164 18534 ft 418 kts 75°
2026-05-05 11:55 40.78086 1.22816 18130 ft 414 kts 75°
2026-05-05 11:55 40.78911 1.26443 17695 ft 410 kts 75°
2026-05-05 11:55 40.79727 1.30029 17290 ft 406 kts 75°
2026-05-05 11:55 40.80533 1.33573 16891 ft 402 kts 75°
2026-05-05 11:56 40.81333 1.37090 16497 ft 397 kts 75°
2026-05-05 11:56 40.82120 1.40564 16113 ft 393 kts 75°
2026-05-05 11:56 40.82899 1.44004 15728 ft 389 kts 75°
2026-05-05 11:56 40.83668 1.47413 15344 ft 385 kts 76°
2026-05-05 11:57 40.84427 1.50784 14969 ft 381 kts 76°
2026-05-05 11:57 40.85179 1.54121 14592 ft 377 kts 76°
2026-05-05 11:57 40.85921 1.57419 14236 ft 373 kts 76°
2026-05-05 11:57 40.86644 1.60648 13883 ft 369 kts 76°
2026-05-05 11:58 40.87280 1.63907 13489 ft 363 kts 83°
2026-05-05 11:58 40.87635 1.67196 13054 ft 360 kts 85°
2026-05-05 11:58 40.87982 1.70464 12612 ft 358 kts 85°
2026-05-05 11:58 40.88331 1.73704 12183 ft 355 kts 85°
2026-05-05 11:59 40.88681 1.76930 11749 ft 353 kts 85°
2026-05-05 11:59 40.89028 1.80130 11324 ft 351 kts 85°
2026-05-05 11:59 40.89369 1.83319 10911 ft 349 kts 85°
2026-05-05 11:59 40.89707 1.86481 10484 ft 347 kts 85°
2026-05-05 12:00 40.90042 1.89636 10083 ft 345 kts 85°
2026-05-05 12:00 40.90370 1.92727 9928 ft 334 kts 84°
2026-05-05 12:00 40.90685 1.95695 9941 ft 318 kts 85°
2026-05-05 12:00 40.90988 1.98556 9943 ft 312 kts 85°
2026-05-05 12:01 40.91286 2.01391 9941 ft 311 kts 85°
2026-05-05 12:01 40.91582 2.04219 9941 ft 311 kts 84°
2026-05-05 12:01 40.92175 2.06968 9926 ft 313 kts 66°
2026-05-05 12:01 40.93375 2.09352 9613 ft 312 kts 46°
2026-05-05 12:02 40.95071 2.11099 9250 ft 308 kts 27°
2026-05-05 12:02 40.96940 2.12475 8863 ft 306 kts 27°
2026-05-05 12:02 40.98791 2.13848 8525 ft 304 kts 28°
2026-05-05 12:02 41.00625 2.15221 8177 ft 301 kts 28°
2026-05-05 12:03 41.02437 2.16588 7950 ft 299 kts 28°
2026-05-05 12:03 41.04242 2.17952 7945 ft 299 kts 28°
2026-05-05 12:03 41.06054 2.19320 7946 ft 299 kts 28°
2026-05-05 12:03 41.07862 2.20687 7947 ft 299 kts 28°
2026-05-05 12:04 41.09671 2.22053 7943 ft 300 kts 28°
2026-05-05 12:04 41.11482 2.23421 7948 ft 300 kts 28°
2026-05-05 12:04 41.13296 2.24789 7942 ft 299 kts 28°
2026-05-05 12:04 41.15107 2.26157 7945 ft 299 kts 28°
2026-05-05 12:05 41.16854 2.27592 7948 ft 299 kts 37°
2026-05-05 12:05 41.18318 2.29463 7944 ft 287 kts 52°
2026-05-05 12:05 41.19427 2.31616 7956 ft 278 kts 58°
2026-05-05 12:05 41.20464 2.33749 7890 ft 274 kts 58°
2026-05-05 12:06 41.21496 2.35856 7755 ft 270 kts 58°
2026-05-05 12:06 41.22512 2.37921 7604 ft 264 kts 57°
2026-05-05 12:06 41.23689 2.39759 7330 ft 261 kts 36°
2026-05-05 12:06 41.25301 2.40801 7070 ft 258 kts 11°
2026-05-05 12:07 41.27062 2.40885 6876 ft 252 kts 346°
2026-05-05 12:07 41.28694 2.40116 6679 ft 248 kts 332°
2026-05-05 12:07 41.30323 2.39349 6521 ft 252 kts 351°
2026-05-05 12:07 41.32047 2.39653 6307 ft 254 kts 24°
2026-05-05 12:08 41.33400 2.41104 5993 ft 252 kts 57°
2026-05-05 12:08 41.34179 2.43181 5680 ft 251 kts 67°
2026-05-05 12:08 41.34894 2.45304 5379 ft 251 kts 67°
2026-05-05 12:08 41.35606 2.47412 5092 ft 249 kts 67°
2026-05-05 12:09 41.36321 2.49515 4813 ft 248 kts 67°
2026-05-05 12:09 41.37031 2.51600 4524 ft 247 kts 65°
2026-05-05 12:09 41.38017 2.53426 4360 ft 241 kts 41°
2026-05-05 12:09 41.39434 2.54494 4225 ft 231 kts 14°
2026-05-05 12:10 41.40980 2.54665 4099 ft 219 kts 348°
2026-05-05 12:10 41.42347 2.53975 3990 ft 203 kts 322°
2026-05-05 12:10 41.43285 2.52718 3875 ft 182 kts 299°
2026-05-05 12:10 41.43749 2.51260 3698 ft 163 kts 279°
2026-05-05 12:11 41.43805 2.49801 3326 ft 159 kts 261°
2026-05-05 12:11 41.43481 2.48411 3010 ft 156 kts 244°
2026-05-05 12:11 41.43032 2.47082 3011 ft 159 kts 245°
2026-05-05 12:11 41.42581 2.45740 3007 ft 159 kts 245°
2026-05-05 12:12 41.42127 2.44391 3006 ft 160 kts 245°
2026-05-05 12:12 41.41672 2.43043 3006 ft 159 kts 245°
2026-05-05 12:12 41.41217 2.41695 3008 ft 159 kts 245°
2026-05-05 12:12 41.40760 2.40344 3007 ft 160 kts 245°
2026-05-05 12:13 41.40304 2.38994 3005 ft 159 kts 245°
2026-05-05 12:13 41.39847 2.37644 3006 ft 160 kts 245°
2026-05-05 12:13 41.39389 2.36291 3009 ft 160 kts 245°
2026-05-05 12:13 41.38929 2.34932 3007 ft 160 kts 245°
2026-05-05 12:14 41.38472 2.33585 3007 ft 159 kts 245°
2026-05-05 12:14 41.38016 2.32240 3006 ft 159 kts 245°
2026-05-05 12:14 41.37558 2.30891 3007 ft 160 kts 245°
2026-05-05 12:14 41.37101 2.29542 2992 ft 160 kts 245°
2026-05-05 12:15 41.36643 2.28196 2865 ft 160 kts 245°
2026-05-05 12:15 41.36186 2.26849 2690 ft 160 kts 245°
2026-05-05 12:15 41.35729 2.25504 2487 ft 159 kts 245°
2026-05-05 12:15 41.35273 2.24162 2278 ft 159 kts 244°
2026-05-05 12:16 41.34817 2.22824 2073 ft 159 kts 245°
2026-05-05 12:16 41.34361 2.21484 1862 ft 159 kts 244°
2026-05-05 12:16 41.33905 2.20146 1653 ft 159 kts 244°
2026-05-05 12:16 41.33454 2.18820 1435 ft 159 kts 244°
2026-05-05 12:17 41.32996 2.17476 1216 ft 157 kts 243°
2026-05-05 12:17 41.32561 2.16200 1004 ft 150 kts 244°
2026-05-05 12:17 41.32130 2.14939 803 ft 150 kts 244°
2026-05-05 12:17 41.31699 2.13677 597 ft 151 kts 243°
2026-05-05 12:18 41.31264 2.12404 392 ft 152 kts 244°
2026-05-05 12:18 41.30828 2.11124 203 ft 152 kts 243°
2026-05-05 12:18 41.30391 2.09846 6 ft 150 kts 243°
2026-05-05 12:18 41.30061 2.08879 4 ft 72 kts 247°
2026-05-05 12:19 41.29930 2.08496 7 ft 38 kts 244°
2026-05-05 12:19 41.29824 2.08314 6 ft 37 kts 222°
2026-05-05 12:19 41.29695 2.08187 3 ft 14 kts 216°
2026-05-05 12:19 41.29614 2.08106 3 ft 15 kts 223°
2026-05-05 12:20 41.29551 2.07963 3 ft 12 kts 230°
2026-05-05 12:20 41.29502 2.07956 3 ft 12 kts 159°
2026-05-05 12:20 41.29386 2.08024 3 ft 15 kts 155°
2026-05-05 12:20 41.29318 2.08066 3 ft 16 kts 156°
2026-05-05 12:21 41.29222 2.08111 3 ft 7 kts 152°
2026-05-05 12:21 41.29208 2.08120 3 ft 0 kts 153°